STARLINK-32171, 60332

Orbit data source: Space-Track

STARLINK-32171, 60332 is a payload satellite owned by SpaceX/Seattle (US) in LEO that was launched on Fri, 02 Aug 2024 UTC via an FALCON 9 launch vehicle from the Air Force Eastern Test Range (AFETR). Payload-class satellites include a variety of spacecraft equipped with specific instruments for various scientific and technological missions. These include communications satellites like Starlink; space stations such as the ISS; scientific satellites like the Hubble; Earth observation satellites from companies like Planet Labs, Umbra, and HawkEye 360; GPS; miniature CubeSats for education and research; and military/defense satellites.

Loading next visibility...
Identifier
60332, 2024-136D
Orbit
LEO
Last TLE update
17 hours ago
Origin
Manufacturer
SpaceX/Seattle
Mission
Operational Commercial Communications
Bus & Motor
STARLINK V2M, Unknown motor
Mass
730 kg wet, ~700 kg dry
Launch date (UTC)
2024-08-02 (11 months ago)
Launch vehicle
FALCON 9
Launch site
Air Force Eastern Test Range (AFETR)
Object type
Payload
Rocket body
Debris
Shape & HBR
Box + 2 Pan, 29 m
Radar Cross Section
33.884 m², Large (>1 m²)

Expand to show TLE details & history

TLE from 17 hours ago
0 STARLINK-32171
1 60332U 24136D   25181.67783902  .00000251  00000-0  20613-4 0  9993
2 60332  53.1595 166.0196 0001250  91.2215 268.8929 15.30190007 51085
Epoch: 2025-06-30T16:16Z
TLE epoch observation values (Epoch: 2025-06-30T16:16:05.291Z)
Latitude
-0.00001°
Longitude
3.01334°
Altitude
476.161 km
Speed
7.629 km/s
True Right ascension
11h 04m 04s
True Declination
0° 00' 00"
Sunlit
Object was in daylight at epoch
Visualization orbit readout
Latitude
22.924°
Longitude
18.01711°
Altitude
475.615 km
Speed
7.631 km/s
Apparent Right ascension
10h 51m 23s
Apparent Declination
-7° 41' 39"
Sunlit
Object is in daylight
Visualization observer readout
Local Sidereal Time
21:16:33
Azimuth
320.273° NNW
Elevation
-51.428°
Doppler factor
1
Orbital elements
Apogee altitude
476.358 km
Perigee altitude
474.645 km
Semi-major axis
6,853.638 km
Eccentricity
0.00013
Inclination
53.1595°
RAAN
166.0196°
Arg. of periapsis
91.2215°
True anomaly
Unknown
Mean anomaly
268.8929°
Eccentric anomaly
Unknown
Mean motion
3.82526 °/min
Orbital period
94.11 mins
BSTAR
0.000020613
Loading maneuver chart data...
Loading SW <> Apogee altitude chart data...
Loading historical data...
Loading historical data...
Loading historical data...
Loading historical data...
Loading historical data...
Loading historical data...
Loading historical data...

STARLINK-32171 Visibility forecast

Observer location: undefined°, undefined°

Span
Click to sort rows by Start time (UTC) header in descending order
Start Az.
Max El. time (UTC)
Max El. Az.
Max El.
End time (UTC)
End Az.
6 mins2025-07-02 01:22:14.213Z222.376° SW2025-07-02 01:25:14.213Z78.069° E42.184°2025-07-02 01:28:14.213Z52.869° ENE
4 mins2025-07-02 06:19:14.213Z342.083° N2025-07-02 06:21:14.213Z16.352° NNE15.108°2025-07-02 06:23:14.213Z52.137° ENE
6 mins2025-07-02 07:57:14.213Z318.508° NNW2025-07-02 08:00:14.213Z73.413° E40.501°2025-07-02 08:03:14.213Z119.524° SE
|